Time,TemperatureF,DewpointF,PressureIn,WindDirection,WindDirectionDegrees,WindSpeedMPH,WindSpeedGustMPH,Humidity,HourlyPrecipIn,Conditions,Clouds,dailyrainin,SoftwareType,DateUTC
2013-09-20 00:11:00,43.0,34.0,29.80,NNE,16,0.0,2.0,71,0.00,,,0.00,,2013-09-20 07:11:00,
2013-09-20 00:22:00,43.0,34.0,29.80,NNE,16,0.0,1.0,71,0.00,,,0.00,,2013-09-20 07:22:00,
2013-09-20 00:42:00,42.0,34.0,29.80,NNE,16,0.0,0.0,74,0.00,,,0.00,,2013-09-20 07:42:00,
2013-09-20 00:52:00,41.0,33.0,29.80,NNE,16,0.0,2.0,74,0.00,,,0.00,,2013-09-20 07:52:00,
2013-09-20 01:11:00,41.0,33.0,29.80,NNE,21,0.0,2.0,73,0.00,,,0.00,,2013-09-20 08:11:00,
2013-09-20 01:21:00,40.0,33.0,29.80,NNE,21,0.0,2.0,75,0.00,,,0.00,,2013-09-20 08:21:00,
2013-09-20 01:52:00,39.0,33.0,29.79,NNE,21,0.0,0.0,79,0.00,,,0.00,,2013-09-20 08:52:00,
2013-09-20 02:12:00,38.0,32.0,29.79,NNE,21,0.0,0.0,80,0.00,,,0.00,,2013-09-20 09:12:00,
2013-09-20 02:22:00,38.0,33.0,29.79,NNE,21,0.0,0.0,83,0.00,,,0.00,,2013-09-20 09:22:00,
2013-09-20 02:43:00,37.0,32.0,29.79,NNE,21,0.0,1.0,82,0.00,,,0.00,,2013-09-20 09:43:00,
2013-09-20 02:53:00,37.0,33.0,29.78,NNE,21,0.0,0.0,84,0.00,,,0.00,,2013-09-20 09:53:00,
2013-09-20 03:12:00,36.0,32.0,29.78,NNE,21,0.0,0.0,86,0.00,,,0.00,,2013-09-20 10:12:00,
2013-09-20 03:23:00,36.0,33.0,29.78,NNE,21,0.0,1.0,88,0.00,,,0.00,,2013-09-20 10:23:00,
2013-09-20 03:42:00,35.0,31.0,29.78,NNE,21,0.0,0.0,86,0.00,,,0.00,,2013-09-20 10:42:00,
2013-09-20 03:53:00,34.0,30.0,29.77,NNE,21,0.0,0.0,85,0.00,,,0.00,,2013-09-20 10:53:00,
2013-09-20 04:11:00,34.0,31.0,29.77,NNE,21,0.0,0.0,87,0.00,,,0.00,,2013-09-20 11:11:00,
2013-09-20 04:23:00,33.0,30.0,29.77,NNE,21,0.0,0.0,88,0.00,,,0.00,,2013-09-20 11:23:00,
2013-09-20 04:42:00,32.0,29.0,29.77,NNE,21,0.0,0.0,89,0.00,,,0.00,,2013-09-20 11:42:00,
2013-09-20 04:52:00,32.0,29.0,29.77,NNE,21,0.0,1.0,90,0.00,,,0.00,,2013-09-20 11:52:00,
2013-09-20 05:12:00,32.0,30.0,29.77,NNE,21,0.0,1.0,91,0.00,,,0.00,,2013-09-20 12:12:00,
2013-09-20 05:22:00,31.0,28.0,29.76,North,350,0.0,2.0,90,0.00,,,0.00,,2013-09-20 12:22:00,
2013-09-20 05:42:00,30.0,28.0,29.76,NNW,329,1.0,3.0,91,0.00,,,0.00,,2013-09-20 12:42:00,
2013-09-20 05:52:00,30.0,28.0,29.75,NNW,329,0.0,1.0,91,0.00,,,0.00,,2013-09-20 12:52:00,
2013-09-20 06:12:00,30.0,28.0,29.75,NNW,329,0.0,1.0,92,0.00,,,0.00,,2013-09-20 13:12:00,
2013-09-20 06:21:00,30.0,28.0,29.74,NNW,329,0.0,1.0,92,0.00,,,0.00,,2013-09-20 13:21:00,
2013-09-20 06:42:00,30.0,28.0,29.74,SSW,196,0.0,2.0,92,0.00,,,0.00,,2013-09-20 13:42:00,
2013-09-20 06:52:00,29.0,27.0,29.74,SSW,196,0.0,2.0,92,0.00,,,0.00,,2013-09-20 13:52:00,
2013-09-20 07:11:00,29.0,27.0,29.74,SSW,196,0.0,2.0,92,0.00,,,0.00,,2013-09-20 14:11:00,
2013-09-20 07:21:00,30.0,28.0,29.74,SSW,205,2.0,6.0,92,0.00,,,0.00,,2013-09-20 14:21:00,
2013-09-20 07:42:00,30.0,27.0,29.74,SW,229,2.0,5.0,89,0.00,,,0.00,,2013-09-20 14:42:00,
2013-09-20 07:52:00,31.0,28.0,29.74,SSW,205,2.0,6.0,88,0.00,,,0.00,,2013-09-20 14:52:00,
2013-09-20 08:12:00,33.0,29.0,29.74,SW,215,3.0,7.0,86,0.00,,,0.00,,2013-09-20 15:12:00,
2013-09-20 08:21:00,36.0,32.0,29.73,SW,223,1.0,6.0,85,0.00,,,0.00,,2013-09-20 15:21:00,
2013-09-20 08:44:00,38.0,34.0,29.72,SSW,213,0.0,3.0,84,0.00,,,0.00,,2013-09-20 15:44:00,
2013-09-20 08:54:00,40.0,35.0,29.72,SSW,194,3.0,7.0,81,0.00,,,0.00,,2013-09-20 15:54:00,
2013-09-20 09:13:00,41.0,35.0,29.72,SSE,156,3.0,6.0,78,0.00,,,0.00,,2013-09-20 16:13:00,
2013-09-20 09:23:00,41.0,34.0,29.72,South,188,4.0,8.0,77,0.00,,,0.00,,2013-09-20 16:23:00,
2013-09-20 09:42:00,42.0,35.0,29.71,South,185,3.0,8.0,77,0.00,,,0.00,,2013-09-20 16:42:00,
2013-09-20 09:52:00,42.0,35.0,29.71,South,185,3.0,8.0,77,0.00,,,0.00,,2013-09-20 16:52:00,
2013-09-20 10:13:00,46.0,37.0,29.70,SSW,203,1.0,5.0,70,0.00,,,0.00,,2013-09-20 17:13:00,
2013-09-20 10:23:00,48.0,38.0,29.70,SSW,209,2.0,7.0,69,0.00,,,0.00,,2013-09-20 17:23:00,
2013-09-20 10:42:00,51.0,39.0,29.68,SSW,200,2.0,5.0,64,0.00,,,0.00,,2013-09-20 17:42:00,
2013-09-20 10:53:00,52.0,39.0,29.68,South,173,2.0,8.0,62,0.00,,,0.00,,2013-09-20 17:53:00,
2013-09-20 11:12:00,54.0,40.0,29.67,South,179,3.0,7.0,58,0.00,,,0.00,,2013-09-20 18:12:00,
2013-09-20 11:22:00,58.0,38.0,29.66,SSW,205,5.0,12.0,48,0.00,,,0.00,,2013-09-20 18:22:00,
2013-09-20 11:42:00,62.0,33.0,29.66,WSW,245,6.0,14.0,33,0.00,,,0.00,,2013-09-20 18:42:00,
2013-09-20 11:52:00,62.0,30.0,29.65,SW,234,8.0,17.0,30,0.00,,,0.00,,2013-09-20 18:52:00,
2013-09-20 12:11:00,63.0,31.0,29.65,WSW,250,5.0,12.0,30,0.00,,,0.00,,2013-09-20 19:11:00,
2013-09-20 12:22:00,64.0,33.0,29.65,West,266,4.0,13.0,31,0.00,,,0.00,,2013-09-20 19:22:00,
2013-09-20 12:42:00,65.0,32.0,29.64,SSW,193,8.0,13.0,29,0.00,,,0.00,,2013-09-20 19:42:00,
2013-09-20 12:52:00,66.0,32.0,29.63,SSW,202,10.0,18.0,28,0.00,,,0.00,,2013-09-20 19:52:00,
2013-09-20 13:11:00,67.0,33.0,29.63,SW,226,8.0,13.0,28,0.00,,,0.00,,2013-09-20 20:11:00,
2013-09-20 13:22:00,68.0,32.0,29.62,South,191,10.0,18.0,26,0.00,,,0.00,,2013-09-20 20:22:00,
2013-09-20 13:42:00,69.0,32.0,29.62,SSW,194,10.0,23.0,25,0.00,,,0.00,,2013-09-20 20:42:00,
2013-09-20 13:52:00,69.0,32.0,29.60,SSW,193,5.0,17.0,25,0.00,,,0.00,,2013-09-20 20:52:00,
2013-09-20 14:12:00,71.0,32.0,29.59,WSW,253,8.0,18.0,24,0.00,,,0.00,,2013-09-20 21:12:00,
2013-09-20 14:21:00,71.0,32.0,29.59,WSW,255,5.0,13.0,24,0.00,,,0.00,,2013-09-20 21:21:00,
2013-09-20 14:54:00,71.0,32.0,29.57,South,189,7.0,14.0,24,0.00,,,0.00,,2013-09-20 21:54:00,
2013-09-20 15:14:00,72.0,34.0,29.57,South,184,2.0,10.0,25,0.00,,,0.00,,2013-09-20 22:14:00,
2013-09-20 15:23:00,72.0,37.0,29.57,WSW,252,6.0,16.0,28,0.00,,,0.00,,2013-09-20 22:23:00,
2013-09-20 15:43:00,72.0,36.0,29.57,WNW,287,1.0,15.0,27,0.00,,,0.00,,2013-09-20 22:43:00,
2013-09-20 15:53:00,71.0,37.0,29.56,WSW,248,5.0,10.0,29,0.00,,,0.00,,2013-09-20 22:53:00,
2013-09-20 16:12:00,71.0,37.0,29.55,West,281,3.0,12.0,29,0.00,,,0.00,,2013-09-20 23:12:00,
2013-09-20 16:22:00,70.0,36.0,29.55,WSW,242,4.0,12.0,29,0.00,,,0.00,,2013-09-20 23:22:00,
2013-09-20 16:42:00,69.0,39.0,29.55,West,263,7.0,13.0,34,0.00,,,0.00,,2013-09-20 23:42:00,
2013-09-20 16:53:00,69.0,41.0,29.55,NNW,338,3.0,12.0,36,0.00,,,0.00,,2013-09-20 23:53:00,
2013-09-20 17:11:00,68.0,41.0,29.54,West,267,4.0,10.0,37,0.00,,,0.00,,2013-09-21 00:11:00,
2013-09-20 17:21:00,68.0,41.0,29.55,West,281,1.0,8.0,37,0.00,,,0.00,,2013-09-21 00:21:00,
2013-09-20 17:42:00,67.0,41.0,29.55,WSW,245,3.0,10.0,39,0.00,,,0.00,,2013-09-21 00:42:00,
2013-09-20 17:52:00,65.0,43.0,29.56,NW,316,7.0,15.0,45,0.00,,,0.00,,2013-09-21 00:52:00,
2013-09-20 18:12:00,63.0,44.0,29.56,West,267,8.0,18.0,50,0.00,,,0.00,,2013-09-21 01:12:00,
2013-09-20 18:22:00,62.0,44.0,29.57,West,277,8.0,15.0,52,0.00,,,0.00,,2013-09-21 01:22:00,
2013-09-20 18:42:00,59.0,44.0,29.58,NNE,16,7.0,16.0,58,0.00,,,0.00,,2013-09-21 01:42:00,
2013-09-20 18:52:00,58.0,45.0,29.59,West,261,8.0,17.0,62,0.00,,,0.00,,2013-09-21 01:52:00,
2013-09-20 19:12:00,56.0,45.0,29.59,SSW,198,4.0,16.0,66,0.00,,,0.00,,2013-09-21 02:12:00,
2013-09-20 19:22:00,55.0,45.0,29.61,SW,234,3.0,10.0,68,0.00,,,0.00,,2013-09-21 02:22:00,
2013-09-20 19:42:00,54.0,45.0,29.62,SW,235,5.0,16.0,72,0.00,,,0.00,,2013-09-21 02:42:00,
2013-09-20 19:52:00,53.0,44.0,29.64,WSW,247,5.0,13.0,71,0.00,,,0.00,,2013-09-21 02:52:00,
2013-09-20 20:12:00,53.0,43.0,29.64,SSW,199,6.0,14.0,69,0.00,,,0.00,,2013-09-21 03:12:00,
2013-09-20 20:22:00,53.0,43.0,29.65,SSW,194,4.0,9.0,69,0.00,,,0.00,,2013-09-21 03:22:00,
2013-09-20 20:44:00,52.0,43.0,29.66,SW,224,3.0,12.0,70,0.00,,,0.00,,2013-09-21 03:44:00,
2013-09-20 20:54:00,52.0,43.0,29.66,SSW,205,5.0,11.0,71,0.00,,,0.00,,2013-09-21 03:54:00,
2013-09-20 21:14:00,52.0,44.0,29.67,WSW,252,4.0,12.0,73,0.00,,,0.00,,2013-09-21 04:14:00,
2013-09-20 21:24:00,52.0,44.0,29.67,SW,221,2.0,8.0,73,0.00,,,0.00,,2013-09-21 04:24:00,
2013-09-20 21:54:00,50.0,44.0,29.68,SSW,210,4.0,12.0,81,0.00,,,0.00,,2013-09-21 04:54:00,
2013-09-20 22:12:00,48.0,45.0,29.69,SW,229,1.0,8.0,88,0.01,,,0.01,,2013-09-21 05:12:00,
2013-09-20 22:23:00,48.0,45.0,29.67,SSE,162,6.0,9.0,89,0.03,,,0.03,,2013-09-21 05:23:00,
2013-09-20 22:43:00,48.0,45.0,29.67,SW,219,3.0,9.0,89,0.03,,,0.03,,2013-09-21 05:43:00,
2013-09-20 22:52:00,47.0,44.0,29.67,SW,214,2.0,6.0,90,0.04,,,0.04,,2013-09-21 05:52:00,
2013-09-20 23:12:00,47.0,44.0,29.66,SW,225,3.0,8.0,90,0.04,,,0.05,,2013-09-21 06:12:00,
2013-09-20 23:22:00,47.0,44.0,29.65,SSW,193,4.0,8.0,89,0.02,,,0.05,,2013-09-21 06:22:00,
2013-09-20 23:42:00,46.0,43.0,29.64,SW,236,2.0,6.0,89,0.02,,,0.05,,2013-09-21 06:42:00,
2013-09-20 23:52:00,46.0,43.0,29.65,SSW,210,3.0,8.0,89,0.01,,,0.05,,2013-09-21 06:52:00,